Location: Deerlick Astronomy Village
(33.5614°N, 82.7631°W)
Time: 02:37:57
(UTC-04:00)

Iridium 66 - Visible Passes

Search period start: 21 August 2017 00:00
Search period end: 31 August 2017 00:00
Orbit: 776 x 779 km, 86.4° (Epoch: 20 August)

Date Brightness Start Highest point End Pass type
(mag) Time Alt. Az. Time Alt. Az. Time Alt. Az.
21 Aug 8.8 02:58:09 10° ENE 02:59:13 11° ENE 02:59:13 11° ENE visible
21 Aug 6.2 04:35:15 10° N 04:39:39 58° NW 04:39:39 58° NW visible
22 Aug 6.8 04:01:45 10° N 04:05:43 48° NNE 04:05:43 48° NNE visible
22 Aug 8.0 05:45:17 10° WNW 05:46:08 11° WNW 05:46:08 11° WNW visible
23 Aug 7.9 03:28:41 10° NNE 03:31:48 27° NE 03:31:48 27° NE visible
23 Aug 7.6 05:09:46 10° NNW 05:12:15 20° WNW 05:12:15 20° WNW visible
24 Aug 8.6 02:56:19 10° NE 02:57:56 14° ENE 02:57:56 14° ENE visible
24 Aug 7.3 04:35:32 10° NNW 04:38:22 29° NW 04:38:22 29° NW visible
25 Aug 7.4 04:01:48 10° N 04:04:30 32° N 04:04:30 32° N visible
26 Aug 8.1 03:28:28 10° N 03:30:40 24° NNE 03:30:40 24° NNE visible
26 Aug 8.2 05:10:46 10° NW 05:11:07 11° NW 05:11:07 11° NW visible
27 Aug 8.7 02:55:37 10° NNE 02:56:52 15° NE 02:56:52 15° NE visible
27 Aug 8.0 04:36:00 10° NNW 04:37:18 16° NW 04:37:18 16° NW visible
28 Aug 8.1 04:01:59 10° N 04:03:31 19° NNW 04:03:31 19° NNW visible
29 Aug 8.4 03:28:25 10° N 03:29:44 18° N 03:29:44 18° N visible
30 Aug 8.8 02:55:15 10° NNE 02:55:58 14° NNE 02:55:58 14° NNE visible
